Penn Yan, NY

3:42 PM EDT on June 22, 2018 (GMT -0400)
Penn Yan

Weather History for KPEO - November, 2017

Change the Weather History Date:

Tuesday, November 21, 2017

  Actual Average (KITH) Record (KITH)
Temperature  
Mean Temperature 47 °F -  
Max Temperature 57 °F 44 °F 72 °F (1991)
Min Temperature 37 °F 29 °F 7 °F (1951)
Degree Days  
Heating Degree Days 18    
Moisture  
Dew Point 23 °F    
Average Humidity 44    
Maximum Humidity 73    
Minimum Humidity 24    
Precipitation  
Precipitation 0.00 in - - ()
Sea Level Pressure  
Sea Level Pressure 29.86 in    
Wind  
Wind Speed 15 mph (SSW)    
Max Wind Speed 22 mph    
Max Gust Speed 34 mph    
Visibility 10 miles    
Events      
Averages and records for this station are not official NWS values.
T = Trace of Precipitation, MM = Missing Value Source: NWS Daily Summary

Daily Weather History Graph

Daily Weather History Graph

Search for Another Location

Airport or City:

Astronomy

Nov. 21, 2017 Rise Set
Actual Time 7:07 AM EST 4:40 PM EST
Civil Twilight 6:36 AM EST 5:11 PM EST
Nautical Twilight 6:01 AM EST 5:45 PM EST
Astronomical Twilight 5:28 AM EST 6:19 PM EST
Moon 9:38 AM EST (11/21) 7:20 PM EST (11/21)
Length of Visible Light 10h 34m
Length of Day
9h 33m
Waxing Crescent, 9% of the Moon is Illuminated
Nov 21
Waxing Crescent
Nov 26
First Quarter
Dec 3
Full
Dec 10
Last Quarter
Dec 18
New

Hourly Weather History & Observations

Time (EST) Temp. Windchill Dew Point Humidity Pressure Visibility Wind Dir Wind Speed Gust Speed Precip Events Conditions
12:53 AM 39.9 °F 30.2 °F 23.0 °F 51% 29.92 in 10.0 mi SSW 20.7 mph - N/A   Clear
1:53 AM 39.0 °F 29.9 °F 23.0 °F 53% 29.93 in 10.0 mi SSW 17.3 mph 24.2 mph N/A   Clear
2:53 AM 39.9 °F 30.5 °F 21.9 °F 49% 29.92 in 10.0 mi SSW 19.6 mph 27.6 mph N/A   Clear
3:53 AM 39.9 °F 31.1 °F 21.0 °F 47% 29.91 in 10.0 mi SSW 17.3 mph 26.5 mph N/A   Clear
4:53 AM 39.0 °F 31.8 °F 23.0 °F 53% 29.90 in 10.0 mi SSW 11.5 mph 21.9 mph N/A   Clear
5:53 AM 39.9 °F 31.4 °F 21.9 °F 49% 29.89 in 10.0 mi SSW 16.1 mph 25.3 mph N/A   Clear
6:53 AM 39.9 °F 31.1 °F 21.9 °F 49% 29.88 in 10.0 mi SSW 17.3 mph 24.2 mph N/A   Clear
7:53 AM 41.0 °F 31.4 °F 19.9 °F 43% 29.87 in 10.0 mi SSW 21.9 mph 28.8 mph N/A   Clear
8:53 AM 43.0 °F 34.2 °F 19.0 °F 38% 29.86 in 10.0 mi SSW 20.7 mph 32.2 mph N/A   Clear
9:53 AM 46.0 °F 38.8 °F 18.0 °F 33% 29.84 in 10.0 mi South 18.4 mph 29.9 mph N/A   Clear
10:53 AM 50.0 °F - 18.0 °F 28% 29.82 in 10.0 mi South 19.6 mph 28.8 mph N/A   Clear
11:53 AM 53.1 °F - 17.1 °F 24% 29.79 in 10.0 mi South 20.7 mph 34.5 mph N/A   Clear
12:53 PM 55.0 °F - 19.0 °F 24% 29.78 in 10.0 mi SSW 18.4 mph 28.8 mph N/A   Clear
1:53 PM 55.0 °F - 21.9 °F 28% 29.78 in 10.0 mi SSW 12.7 mph 23.0 mph N/A   Unknown
2:53 PM 57.0 °F - 21.0 °F 25% 29.80 in 10.0 mi SW 12.7 mph 21.9 mph N/A   Clear
3:53 PM 55.9 °F - 23.0 °F 28% 29.83 in 10.0 mi SSW 10.4 mph - N/A   Clear
4:53 PM 52.0 °F - 24.1 °F 34% 29.84 in 10.0 mi South 6.9 mph - N/A   Clear
5:53 PM 46.0 °F 43.9 °F 25.0 °F 44% 29.86 in 10.0 mi SSW 4.6 mph - N/A   Clear
6:53 PM 37.9 °F - 25.0 °F 60% 29.88 in 10.0 mi Calm Calm - N/A   Clear
7:53 PM 37.0 °F - 26.1 °F 65% 29.89 in 10.0 mi Calm Calm - N/A   Clear
8:53 PM 46.0 °F 44.8 °F 28.0 °F 50% 29.89 in 10.0 mi Variable 3.5 mph - N/A   Clear
9:53 PM 37.9 °F - 30.0 °F 73% 29.90 in 10.0 mi Calm Calm - N/A   Overcast
10:53 PM 42.1 °F 40.2 °F 30.0 °F 62% 29.88 in 10.0 mi SW 3.5 mph - N/A   Partly Cloudy
11:53 PM 45.0 °F 43.5 °F 28.9 °F 53% 29.88 in 10.0 mi WSW 3.5 mph - N/A   Clear